Location: ??????
(55.7522°N, 37.6156°E)
Time: 17:18:38
(UTC+00:00)

Cosmos 1634 Rocket - Pass Details

Date: 14 June 2025
Orbit: 958 x 992 km, 82.9° (Epoch: 13 July)

Event Time Altitude Azimuth Distance (km) Brightness Sun altitude
Rises 22:11:30 0° 346° (NNW) 3,709 8.4 -10.4°
Reaches altitude 10° 22:14:05 10° 342° (NNW) 2,752 7.4 -10.4°
Maximum altitude 22:20:11 53° 268° (W) 1,186 4.4 -10.2°
Enters shadow 22:25:39 13° 195° (SSW) 2,520 5.5 -10.1°
